Meteo Giornale » Osservazioni meteo Italia » Milano-Linate

ore: 18:20 - Osservazioni Meteo Milano-Linate
Lat. 45° 26' N Lon. 9° 17' E Alt. 107 metri s.l.m.

sereno Europe/Rome

22 °C

Sereno

Temp. 24 Ore

12 °C

24 °C

Nord

5.5 Km/h

Dew point 13 °C

Umidità 56 %

Visibilità  10 Km

Il sole sorge alle ore 07:42

Il sole tramonta alle ore 18:33

Data e Ora Cielo e Fenomeni T °C DP °C Um. % Pres. hPa Vis. km Vento km/h
Oggi h: 18:20 sereno Sereno 22 13 56 1015 10 N 5.5
Oggi h: 17:50 sereno Sereno 23 13 53 1015 10 N 5.5
Oggi h: 17:20 sereno Sereno 24 13 50 1015 8 N 1.8
Oggi h: 16:50 sereno Sereno 24 13 50 1015 8 S 7.4
Oggi h: 16:20 sereno Sereno 24 13 50 1015 8 S/SE 7.4
Oggi h: 15:50 sereno Sereno 23 13 53 1015 8 N 5.5
Oggi h: 15:20 sereno Sereno 23 13 53 1015 9 S 7.4
Oggi h: 13:50 sereno Sereno 23 13 53 1016 7 N 3.7
Oggi h: 13:20 sereno Sereno 22 13 56 1016 8 N 3.7
Oggi h: 12:50 sereno Sereno 22 13 56 1017 6 N 1.8
Oggi h: 12:20 sereno Sereno 21 13 60 1017 6 N 3.7
Oggi h: 11:50 poco_nuvoloso Poco Nuvoloso 20 13 64 1017 6 N/NE 7.4
Oggi h: 11:20 foschia Foschia 19 13 68 1017 5 N 7.4
Oggi h: 10:50 foschia Foschia 17 13 77 1018 5 N 3.7
Oggi h: 10:20 foschia Foschia 16 13 82 1018 5 N 1.8
Oggi h: 09:50 foschia Foschia 15 13 87 1018 5 N 1.8
Oggi h: 09:20 foschia Foschia 15 13 87 1017 4 N 1.8
Oggi h: 08:50 foschia Foschia 14 12 87 1017 4 N 1.8
Oggi h: 08:20 foschia Foschia 14 13 93 1017 4 N 1.8
Oggi h: 07:50 foschia Foschia 13 12 93 1017 4 N 5.5
Oggi h: 07:20 foschia Foschia 12 12 100 1017 5 N 3.7
Oggi h: 06:50 sereno Sereno 13 12 93 1017 10 N 3.7
Oggi h: 06:20 sereno Sereno 13 13 100 1017 10 N 1.8
Oggi h: 05:50 sereno Sereno 14 13 93 1017 10 N 1.8
Oggi h: 05:20 sereno Sereno 15 13 87 1017 10 N 1.8
Oggi h: 04:50 sereno Sereno 15 13 87 1017 10 N 3.7
Oggi h: 04:20 sereno Sereno 15 13 87 1017 10 N 3.7
Oggi h: 03:50 sereno Sereno 15 14 93 1017 10 N 1.8
Oggi h: 03:20 sereno Sereno 14 13 93 1018 10 N 1.8
Oggi h: 02:50 sereno Sereno 14 13 93 1018 10 N 0
Oggi h: 02:20 sereno Sereno 14 13 93 1018 10 N 1.8
Oggi h: 01:50 sereno Sereno 13 13 100 1018 10 N 1.8
Oggi h: 01:20 sereno Sereno 13 12 93 1018 10 N 3.7
Oggi h: 00:50 sereno Sereno 14 13 93 1018 10 N 3.7
Oggi h: 00:20 poco_nuvoloso Poco Nuvoloso 14 12 87 1018 10 N 1.8
Ieri h: 23:50 poco_nuvoloso Poco Nuvoloso 15 13 87 1019 10 N 1.8
Ieri h: 23:20 poco_nuvoloso Poco Nuvoloso 15 13 87 1019 10 N 1.8
Ieri h: 22:50 poco_nuvoloso Poco Nuvoloso 15 13 87 1019 10 N 0
Ieri h: 22:20 sereno Sereno 15 13 87 1019 10 N 1.8
Ieri h: 21:50 nuvoloso Nuvoloso 16 13 82 1019 10 N 1.8
Ieri h: 21:20 poco_nuvoloso Poco Nuvoloso 16 14 87 1018 10 N 1.8
Ieri h: 20:50 poco_nuvoloso Poco Nuvoloso 17 13 77 1018 10 N 0
Ieri h: 20:20 nuvoloso Nuvoloso 17 13 77 1018 9 N 1.8
Ieri h: 19:50 nuvoloso Nuvoloso 18 13 72 1018 9 N 3.7
Ieri h: 19:20 molto_nuvoloso Molto Nuvoloso 19 13 68 1018 9 N 1.8